Dewpoint
72 72 74 75 75 74 73 73 73 74 75 74 74 73 73 74 73 72 72 72 71 70 70 69 68 68 67 67 68 68 68 68 70 70 70 71 73 75 76 77 76 76 75 74 74 74 74 74 73 73 72 72 72 73 73 73 72 72 72 72 73 72 72 73 72 72 72 71 71 72 72 72 73 73 73 72 72 72 72 71 71 70 70 72 71
72 73 73 74 74 74 74 73 73 74 75 74 74 74 72 72 72 72 71 71 71 71 71 69 68 67 67 64 65 65 67 68 69 70 70 72 73 75 76 76 77 76 76 74 74 74 74 73 73 73 73 72 72 72 73 73 73 72 72 72 72 72 72 73 72 72 72 72 72 71 71 72 73 73 72 73 73 72 72 72 72 71 71 71 71
72 72 73 73 73 74 73 73 73 73 74 72 75 73 72 73 72 71 71 71 70 71 71 69 69 68 67 65 63 65 65 67 69 70 71 73 73 73 76 77 77 76 76 76 74 74 74 74 74 73 73 73 72 72 72 73 73 72 72 72 72 72 72 72 73 73 73 73 72 72 72 72 72 73 72 73 73 73 73 72 72 72 72 72 71
72 72 73 73 73 74 74 73 72 73 74 73 74 74 74 73 73 72 72 71 70 70 70 70 69 67 66 65 65 67 66 65 66 68 71 73 72 72 74 76 77 76 76 76 75 74 74 74 74 74 73 74 74 73 72 72 73 73 73 72 72 72 72 72 72 72 73 73 73 73 72 72 72 73 73 73 73 73 73 73 72 72 72 72 72
72 73 76 73 74 73 73 75 74 74 74 75 75 74 73 73 73 74 73 71 71 70 70 68 67 65 65 64 66 65 67 64 64 66 72 72 72 73 74 75 75 76 76 75 76 75 74 74 74 73 73 74 73 74 73 73 73 74 74 73 72 72 72 73 73 72 73 73 73 73 73 72 73 73 73 73 73 73 73 73 72 72 72 72 72
72 73 75 73 74 73 73 74 74 75 75 75 74 72 71 71 71 72 74 72 70 70 68 66 66 65 63 66 66 66 65 63 64 68 72 72 72 73 74 74 74 74 75 76 76 75 75 75 74 74 74 74 74 74 73 73 74 74 74 74 73 73 72 72 73 73 73 73 73 73 73 73 73 73 73 73 73 73 73 73 72 72 72 72 72
73 74 75 74 74 73 73 74 75 75 75 74 73 73 72 71 72 69 70 70 70 70 69 66 67 65 65 69 66 67 66 65 64 69 72 72 72 73 73 74 74 74 75 75 76 76 76 75 75 74 74 74 74 73 73 74 74 74 74 74 73 73 73 73 73 73 73 73 73 73 73 73 73 73 73 73 73 73 73 73 73 73 72 73 73
75 75 75 74 73 72 74 74 75 74 74 74 73 72 72 72 72 70 68 68 71 68 68 66 67 66 67 68 66 70 65 66 64 65 69 71 72 72 73 73 73 74 76 73 74 75 76 75 74 74 74 74 74 74 74 73 74 74 73 72 73 73 73 73 73 73 74 73 73 73 73 73 73 73 73 73 73 73 73 73 73 73 73 73 73
76 75 74 74 73 73 74 74 75 74 73 73 72 73 72 71 71 73 69 68 68 68 67 66 65 66 64 64 66 69 65 66 65 65 67 69 70 71 72 72 73 76 74 73 73 74 76 76 75 74 74 74 74 74 74 74 74 74 73 73 73 73 73 73 74 73 73 73 73 73 73 73 73 73 73 72 73 73 74 74 74 73 73 73 73
76 75 74 74 74 74 74 75 74 73 73 72 71 71 71 70 69 71 72 69 68 67 65 66 66 65 64 64 65 65 65 66 69 72 65 65 67 69 71 71 74 74 73 72 73 73 74 76 75 74 74 74 74 74 74 74 74 74 73 73 73 73 73 73 73 73 73 73 73 73 73 73 73 73 73 73 73 73 73 73 73 73 73 73 73
75 76 75 76 74 74 74 74 74 73 72 71 71 72 71 70 70 70 72 70 68 67 64 66 65 66 66 65 66 66 66 67 68 66 65 64 66 68 69 71 71 71 72 71 72 72 73 73 73 73 73 74 74 75 74 74 74 74 74 74 73 73 73 73 72 73 73 73 72 73 73 73 73 74 74 73 73 73 73 73 73 73 73 73 73
75 76 75 75 74 74 73 74 74 73 72 71 71 71 71 71 70 70 69 70 71 67 66 63 65 65 69 68 67 67 65 71 67 67 67 66 67 68 68 68 70 70 71 71 71 72 72 72 73 71 72 73 74 74 74 74 74 74 74 74 74 73 73 73 72 72 72 72 73 72 72 73 73 73 74 73 73 73 73 74 74 73 73 73 73
76 76 75 77 75 74 74 74 74 73 72 71 71 71 71 71 71 71 68 65 64 67 66 65 62 62 64 64 66 67 73 70 66 65 64 62 65 64 66 67 68 69 69 70 70 71 71 71 71 70 71 72 73 73 73 73 73 73 73 73 73 73 73 73 72 72 73 73 72 72 72 73 73 73 73 72 73 72 72 73 74 74 74 74 73
76 76 76 76 75 74 74 74 74 73 72 72 71 73 72 71 70 67 67 64 62 65 67 64 62 61 60 61 65 63 68 68 66 65 62 59 59 60 61 63 65 67 68 69 69 70 70 70 71 70 70 70 70 70 71 72 72 73 73 73 73 73 73 73 73 73 73 72 72 72 72 72 72 72 72 73 73 72 73 72 72 73 74 73 73
76 76 76 76 75 74 74 74 73 74 72 71 72 71 71 70 69 65 64 66 66 68 65 63 61 65 64 61 59 59 63 64 66 68 60 57 58 58 60 62 65 67 68 68 68 68 69 69 70 70 70 70 70 70 71 74 72 73 73 73 73 73 72 73 73 73 73 73 73 72 71 72 73 72 72 72 72 72 72 72 72 72 72 72 72
76 76 76 76 75 74 74 73 73 74 72 71 71 70 70 68 67 66 64 62 63 63 66 65 65 63 58 59 60 61 58 57 61 64 64 57 56 57 60 62 64 64 65 66 66 66 66 67 69 70 71 70 70 70 70 70 72 72 72 72 71 71 72 71 71 72 72 72 72 72 72 72 72 72 72 72 72 71 71 71 72 72 72 72 72
76 77 76 76 75 74 73 73 73 73 72 71 70 69 69 68 66 66 63 63 62 64 66 66 63 64 64 61 59 58 57 59 61 60 63 55 56 56 62 59 60 63 64 64 65 65 64 64 65 69 70 70 69 69 70 70 69 71 70 71 69 69 70 71 71 70 70 70 70 71 72 72 72 72 71 71 71 72 72 71 72 72 72 72 72
76 77 76 76 74 74 73 73 73 73 72 70 70 68 67 64 66 66 64 64 63 63 63 67 66 68 65 63 61 58 58 60 58 55 62 62 58 58 60 57 59 62 62 63 63 63 66 63 64 67 70 70 70 69 69 68 69 66 64 67 68 68 68 69 69 69 69 69 69 69 70 70 70 71 71 71 72 72 72 71 72 72 71 71 71
76 76 75 76 74 73 73 73 73 73 73 70 69 68 66 65 67 64 64 68 64 62 63 64 62 63 66 64 67 67 63 59 56 58 55 57 61 57 55 58 59 58 61 62 62 62 64 64 63 65 69 70 70 70 69 68 69 67 69 68 67 67 67 68 68 68 67 67 67 67 68 68 68 68 69 69 69 70 70 71 71 72 72 72 71
75 75 75 76 75 74 73 73 73 71 72 70 69 68 66 67 68 66 67 66 64 63 63 63 61 61 68 63 65 66 64 63 62 57 56 54 54 57 58 58 59 58 59 60 61 61 62 63 62 64 68 69 70 70 69 68 67 66 68 68 66 66 66 67 67 66 66 66 66 66 66 66 66 67 67 67 67 68 69 69 69 69 70 71 72
75 75 74 75 75 74 73 72 71 71 72 70 68 66 65 67 67 66 66 65 64 64 64 63 63 62 62 61 62 61 62 62 65 62 59 55 55 56 55 57 57 57 59 59 59 60 61 60 60 63 68 69 69 69 68 67 66 65 67 67 67 67 67 67 67 66 65 64 64 64 65 65 65 66 66 66 66 67 67 67 67 68 68 69 69
74 74 74 74 74 74 72 71 70 70 72 68 66 66 67 67 66 65 65 65 66 65 63 64 63 64 63 62 62 60 57 57 58 59 58 56 53 53 55 53 54 55 59 57 57 58 59 58 62 62 63 66 67 67 66 66 65 65 66 68 67 67 67 67 66 66 65 65 64 63 64 64 65 65 66 65 65 66 66 65 66 66 66 66 67
74 74 74 73 73 73 72 70 70 70 71 68 66 66 66 66 66 66 65 64 65 65 67 64 65 65 64 61 61 59 58 56 56 58 58 57 55 55 56 58 53 54 57 57 60 59 59 59 61 60 61 62 65 65 64 64 66 66 67 68 68 68 67 67 67 66 65 66 66 65 63 63 63 64 65 65 65 66 66 66 66 65 65 65 66
73 72 72 72 72 72 72 70 70 69 69 68 66 66 66 66 66 66 64 64 65 66 65 65 65 64 64 63 63 64 62 60 59 57 57 57 54 55 56 58 58 58 61 60 63 59 59 58 60 59 59 60 61 63 64 63 64 66 67 68 69 68 68 68 67 66 66 67 67 65 64 63 63 63 63 64 65 65 65 65 65 65 65 65 65
72 71 71 72 72 71 70 70 69 69 68 67 67 66 66 66 65 65 65 65 65 65 63 64 63 62 62 64 63 63 62 62 61 58 56 57 55 56 57 59 56 57 60 61 58 60 59 58 59 60 58 60 61 62 63 64 63 66 68 67 69 68 68 68 67 67 67 67 67 67 66 65 64 64 66 65 64 64 63 62 63 63 64 65 65
72 71 71 71 71 70 70 69 69 69 68 67 67 66 66 65 65 65 65 65 64 64 62 63 63 62 62 63 62 61 61 62 60 61 60 57 56 56 58 60 58 58 59 61 63 58 59 62 62 62 62 59 60 61 62 63 63 67 69 65 66 68 67 67 67 67 66 66 67 67 67 66 66 65 65 65 65 64 64 64 64 64 64 64 65
71 70 71 70 70 70 70 69 69 69 68 66 67 66 66 66 66 65 65 65 64 65 63 63 64 64 64 62 61 62 62 63 62 61 61 58 58 58 59 57 57 58 58 59 60 59 58 62 64 63 63 63 60 61 61 62 64 66 69 68 63 66 67 66 66 66 66 66 66 66 66 68 67 67 66 67 67 66 65 65 65 64 64 64 64
71 70 70 70 70 70 70 69 68 69 68 66 65 66 66 65 66 65 64 66 64 64 63 63 63 64 64 63 63 61 62 63 63 62 62 62 62 62 59 57 55 54 58 57 58 58 61 60 61 63 64 65 63 62 64 64 62 66 69 68 65 63 67 67 66 66 66 66 66 66 66 66 66 67 66 67 66 67 67 67 66 65 65 65 65
71 70 70 70 70 69 69 69 68 68 68 67 65 66 65 65 65 65 64 65 65 64 63 63 62 63 63 63 63 62 62 63 63 63 63 63 63 62 60 58 57 56 55 55 56 57 59 60 57 59 64 64 64 65 65 63 63 65 64 67 66 64 64 66 66 66 66 66 66 66 66 66 66 66 67 66 66 68 67 68 68 67 66 66 66
71 71 70 69 70 71 69 69 69 68 68 66 65 65 65 65 65 65 64 65 64 65 64 63 63 62 64 64 63 62 63 64 63 64 63 62 62 62 61 61 60 56 56 55 55 58 58 60 59 58 61 65 65 65 65 64 66 67 65 65 66 64 65 65 65 65 65 65 65 65 65 66 66 66 66 66 67 68 68 67 68 66 67 68 68
71 71 70 69 70 70 69 69 69 68 67 66 65 65 65 64 65 65 64 65 64 64 64 64 63 63 63 63 63 62 64 64 62 64 64 63 62 62 62 63 61 59 59 57 55 59 60 58 60 62 60 62 65 64 65 65 66 66 66 65 65 66 66 65 65 65 65 65 64 64 64 65 65 65 65 65 66 66 66 66 67 67 67 66 67
71 71 70 69 69 69 69 68 69 68 67 66 65 65 65 64 64 65 64 65 64 63 63 64 64 63 63 63 64 63 64 64 63 63 63 64 63 63 63 63 62 61 61 59 58 58 60 60 60 61 63 63 63 62 62 63 65 70 66 65 64 68 66 65 66 66 65 65 65 65 64 64 63 64 65 65 65 66 66 66 66 66 66 66 66
71 70 70 70 69 69 69 68 68 68 67 66 65 65 64 64 64 64 64 64 64 63 63 63 63 63 63 63 63 64 64 63 62 62 63 64 63 64 64 63 62 62 62 61 59 59 60 61 62 62 63 63 61 61 60 61 61 62 67 66 65 64 64 64 64 65 65 64 64 64 64 63 63 64 64 65 65 66 66 66 65 65 65 65 65
71 71 70 69 70 69 69 68 68 67 67 66 65 65 64 64 64 64 64 64 63 63 63 62 63 63 63 63 63 63 63 63 62 62 62 64 62 62 63 63 63 63 63 61 60 59 59 59 60 62 63 63 61 62 60 61 61 63 63 63 64 65 64 63 63 63 64 64 64 63 64 63 63 63 63 64 64 65 65 65 65 64 64 65 64
71 71 70 69 69 69 68 68 68 67 67 66 65 64 64 64 64 64 64 64 63 63 63 63 62 63 63 63 62 62 63 63 62 62 62 63 62 61 62 63 63 63 64 62 60 59 59 59 60 60 61 62 62 61 62 63 63 63 63 63 63 63 64 64 64 64 64 64 64 63 63 63 63 63 63 63 63 64 64 63 63 63 63 63 62
71 71 71 70 69 69 69 68 68 67 67 66 65 64 64 64 64 64 64 64 63 63 62 63 63 63 62 62 62 62 63 63 62 62 62 62 62 62 62 63 63 63 63 63 62 60 60 59 59 60 62 61 62 63 63 64 64 64 63 63 63 63 63 63 63 63 63 63 63 62 63 63 62 62 61 61 61 61 61 61 61 61 61 61 61
71 71 71 70 69 69 69 68 68 67 67 66 66 65 65 65 64 64 64 64 63 63 63 62 65 63 63 62 62 63 63 62 62 62 62 61 62 62 61 62 63 63 63 63 63 61 59 58 60 62 62 63 63 63 64 63 63 63 63 63 63 63 63 62 63 63 64 63 64 63 63 62 62 62 62 61 61 60 60 60 60 59 59 59 58
71 71 71 70 70 69 69 68 68 67 67 67 66 65 64 65 64 64 64 64 64 63 63 63 63 63 63 63 62 63 62 62 61 62 62 62 62 63 63 62 62 62 62 62 62 62 61 60 61 61 61 62 62 62 63 63 62 62 62 62 61 61 61 61 61 62 63 63 63 63 64 63 63 62 62 62 61 60 60 60 60 59 59 58 56
71 71 71 70 70 69 69 68 68 68 67 67 66 66 65 65 65 64 64 64 64 64 63 63 63 63 62 63 62 62 62 62 62 62 63 63 63 63 63 63 63 62 62 62 62 62 62 61 61 60 60 61 61 61 62 63 63 62 61 60 59 60 60 60 60 61 62 63 64 64 64 63 63 62 60 59 60 60 60 59 59 59 58 57 56
71 71 70 70 70 70 69 69 68 68 67 67 66 66 65 65 65 64 64 64 64 64 64 63 63 63 63 63 62 62 62 63 62 63 63 62 64 63 63 63 63 62 62 62 62 61 61 60 60 60 60 60 60 62 63 61 59 59 60 60 59 59 59 60 61 61 62 62 61 61 62 62 62 62 61 61 61 61 60 60 61 62 61 59 57
71 71 71 70 70 70 70 69 69 68 67 67 67 66 66 65 65 64 64 64 64 63 64 64 64 64 63 63 63 63 64 67 67 66 65 65 63 63 63 64 63 63 62 61 62 60 61 60 60 60 60 60 60 60 60 59 59 59 59 60 59 59 59 60 60 61 61 60 61 61 61 61 61 61 61 60 60 61 61 62 61 62 61 59 59
71 71 70 70 70 70 70 70 69 69 68 68 65 61 63 66 65 65 64 64 64 63 63 64 64 64 64 63 64 67 67 69 69 69 67 68 67 64 63 64 64 63 62 61 60 60 60 59 59 58 58 57 58 59 59 59 59 59 58 59 58 58 57 58 59 59 61 60 59 59 59 60 60 59 59 58 57 58 57 57 56 56 57 56 57
71 70 70 70 70 70 70 70 69 69 69 68 62 61 61 63 65 65 64 64 64 63 63 63 64 64 64 65 65 68 67 69 68 68 68 67 66 66 65 65 65 63 61 60 60 60 60 59 59 58 58 58 58 59 59 59 59 58 58 58 58 58 57 55 55 57 60 60 58 55 56 56 56 55 55 55 55 55 55 56 57 58 57 57 57
71 71 70 69 69 70 70 70 70 69 69 64 60 60 61 61 63 66 65 64 64 63 63 63 64 65 65 65 65 65 64 65 65 67 66 65 64 64 64 64 64 65 64 61 60 60 59 59 59 59 59 59 59 59 58 58 58 58 59 59 58 58 57 55 55 55 58 59 56 54 54 54 55 55 55 55 55 56 56 57 58 57 57 57 57
70 71 70 70 70 70 70 70 70 70 69 63 60 59 60 60 61 64 65 65 64 63 64 64 65 65 65 64 63 64 65 68 67 64 64 65 64 63 64 64 64 63 62 62 62 62 61 60 60 60 60 60 60 60 60 60 60 58 58 57 57 57 57 56 56 55 56 56 54 53 52 53 54 55 55 56 56 56 57 57 57 58 57 57 57
70 71 70 70 70 71 71 70 70 70 70 62 59 58 59 60 61 63 67 65 64 64 65 65 65 65 64 63 63 63 65 67 65 64 64 64 64 64 64 64 63 65 64 62 61 61 63 63 62 61 61 62 61 61 62 61 60 59 57 57 56 55 55 55 55 55 55 56 54 52 53 54 55 55 55 55 56 57 57 57 58 57 57 56 56
70 71 70 70 70 71 71 71 70 70 70 60 58 58 58 58 60 62 66 66 66 65 65 65 65 64 64 63 63 64 65 66 65 64 64 64 63 63 62 63 63 63 63 64 64 63 63 63 63 62 63 63 62 62 62 61 61 60 60 58 56 55 54 53 53 54 55 56 55 53 52 53 54 54 54 55 56 56 56 56 56 55 55 55 55
71 71 71 71 71 71 71 71 71 70 69 58 58 58 57 58 59 64 66 66 66 65 65 65 65 64 64 63 64 64 65 65 65 64 65 64 63 62 62 62 62 62 62 64 63 64 66 64 64 63 63 63 62 62 62 62 60 59 58 56 54 53 52 51 51 52 53 54 54 53 52 52 54 54 53 53 52 50 50 49 51 53 53 54 53
71 71 71 71 71 71 71 70 70 69 65 59 57 56 57 57 59 65 66 66 66 66 65 65 65 64 64 63 64 64 64 64 63 61 63 67 62 61 61 60 61 61 62 63 62 61 60 59 59 60 59 58 57 55 54 55 57 55 53 52 52 51 50 49 51 50 51 52 54 54 53 51 52 49 47 48 49 48 48 48 48 51 52 52 51
71 71 71 71 71 71 70 70 69 67 66 60 56 55 55 56 60 66 66 66 66 66 65 65 65 64 65 66 65 64 64 63 61 59 61 65 62 61 60 61 61 61 61 62 63 61 60 58 57 57 56 56 55 55 54 53 53 54 52 52 52 51 51 51 50 51 52 54 55 53 46 46 47 47 47 47 50 49 50 48 48 49 52 51 51
71 71 71 70 70 70 70 69 64 67 67 61 54 55 55 55 61 66 66 66 65 65 64 64 65 65 65 67 66 65 64 63 59 59 59 64 62 61 61 59 60 60 61 58 58 58 57 57 56 57 58 57 58 57 58 58 57 58 55 54 54 52 51 52 52 52 51 51 54 49 46 46 46 47 46 45 43 45 48 48 50 49 49 50 51